Terug naar catalogus

CHOLLIMA-1 R/B

ActiefSSO
NORAD 58401·ROCKET BODY·🇰🇵 North Korea

Gelanceerd Nov 21, 2023 vanaf Sohae Satellite Launching Station

Loading…

Volgende Passages (komende 24 uur)

TLE

VersSource: Space-Track

Epoch: Sep 14, 2026, 05:40 UTC

1 58401U 23179B   26257.23656863  .00037620  00000-0  31996-3 0  9990
2 58401  97.2985 167.7376 0012958 163.8641 196.3036 15.69406695158442

Volg CHOLLIMA-1 R/B in realtime met AllMySat

Download on the App Store